| time (UTC) | temp F | wind direction | speed knots | gust knots | rain 1hr in | rain 24hr in | rain mn in | humidity % | barometer mb |
| 20260505194106 | 56 | 94 | 1.7 | 7.8 | 0.00 | 0.24 | 0.03 | 43 | 1009.6 |
| 20260505193106 | 56 | 94 | 5.2 | 10.4 | 0.00 | 0.24 | 0.03 | 42 | 1009.8 |
| 20260505192606 | 56 | 94 | 9.6 | 9.6 | 0.00 | 0.24 | 0.03 | 44 | 1010.1 |
| 20260505192106 | 56 | 94 | 7.0 | 7.0 | 0.00 | 0.24 | 0.03 | 43 | 1010.0 |
| 20260505191106 | 56 | 94 | 1.7 | 8.7 | 0.00 | 0.24 | 0.03 | 44 | 1010.1 |
| 20260505190106 | 56 | 94 | 1.7 | 7.0 | 0.00 | 0.24 | 0.03 | 45 | 1010.0 |
| 20260505185605 | 56 | 94 | 0.9 | 5.2 | 0.00 | 0.24 | 0.03 | 45 | 1009.9 |
| 20260505184605 | 55 | 94 | 2.6 | 7.8 | 0.00 | 0.24 | 0.03 | 45 | 1010.1 |
| 20260505184105 | 55 | 94 | 3.5 | 7.8 | 0.00 | 0.24 | 0.03 | 44 | 1010.1 |
| 20260505183605 | 55 | 94 | 1.7 | 6.1 | 0.00 | 0.24 | 0.03 | 45 | 1010.3 |
| 20260505183105 | 55 | 94 | 1.7 | 7.8 | 0.00 | 0.24 | 0.03 | 45 | 1010.0 |
| 20260505182605 | 55 | 94 | 2.6 | 7.8 | 0.00 | 0.24 | 0.03 | 44 | 1010.2 |
| 20260505181105 | 56 | 94 | 4.3 | 7.8 | 0.00 | 0.24 | 0.03 | 45 | 1010.1 |
| 20260505180605 | 56 | 94 | 1.7 | 6.1 | 0.00 | 0.24 | 0.03 | 46 | 1010.2 |
| 20260505180105 | 56 | 94 | 1.7 | 6.1 | 0.00 | 0.24 | 0.03 | 47 | 1010.2 |
| 20260505175605 | 56 | 94 | 3.5 | 4.3 | 0.00 | 0.24 | 0.03 | 46 | 1010.3 |
| 20260505175105 | 55 | 94 | 1.7 | 4.3 | 0.00 | 0.24 | 0.03 | 46 | 1010.2 |
| 20260505174605 | 55 | 94 | 0.9 | 5.2 | 0.00 | 0.24 | 0.03 | 48 | 1010.1 |
| 20260505174105 | 55 | 94 | 0.0 | 6.1 | 0.00 | 0.24 | 0.03 | 45 | 1010.1 |
| 20260505173104 | 55 | 94 | 0.0 | 6.1 | 0.00 | 0.24 | 0.03 | 47 | 1010.2 |
| 20260505172604 | 55 | 94 | 4.3 | 7.0 | 0.00 | 0.24 | 0.03 | 46 | 1010.2 |
| 20260505172105 | 55 | 94 | 1.7 | 7.0 | 0.00 | 0.24 | 0.03 | 46 | 1010.2 |
| 20260505170604 | 54 | 94 | 2.6 | 10.4 | 0.00 | 0.24 | 0.03 | 47 | 1010.1 |
| 20260505165604 | 54 | 94 | 1.7 | 6.1 | 0.00 | 0.24 | 0.03 | 47 | 1010.1 |
| 20260505165104 | 54 | 94 | 2.6 | 10.4 | 0.00 | 0.24 | 0.03 | 46 | 1010.1 |
| 20260505164604 | 54 | 94 | 2.6 | 10.4 | 0.00 | 0.24 | 0.03 | 46 | 1010.1 |
| 20260505164104 | 54 | 94 | 4.3 | 7.8 | 0.00 | 0.24 | 0.03 | 48 | 1010.0 |
| 20260505163604 | 54 | 94 | 1.7 | 6.1 | 0.00 | 0.24 | 0.03 | 46 | 1010.0 |
| 20260505162604 | 54 | 94 | 4.3 | 8.7 | 0.00 | 0.24 | 0.03 | 48 | 1009.8 |
| 20260505162104 | 54 | 94 | 3.5 | 9.6 | 0.00 | 0.24 | 0.03 | 48 | 1009.8 |
| 20260505161604 | 54 | 94 | 1.7 | 10.4 | 0.00 | 0.24 | 0.03 | 47 | 1009.7 |
| 20260505161103 | 54 | 94 | 5.2 | 10.4 | 0.00 | 0.24 | 0.03 | 47 | 1009.7 |
| 20260505160604 | 54 | 94 | 2.6 | 7.0 | 0.00 | 0.24 | 0.03 | 48 | 1009.7 |
| 20260505160103 | 54 | 94 | 3.5 | 7.8 | 0.00 | 0.24 | 0.03 | 48 | 1009.5 |
| 20260505153103 | 55 | 94 | 5.2 | 9.6 | 0.00 | 0.24 | 0.03 | 46 | 1009.7 |
| 20260505152604 | 55 | 94 | 6.1 | 9.6 | 0.00 | 0.24 | 0.03 | 45 | 1009.5 |
| 20260505152103 | 55 | 94 | 1.7 | 6.1 | 0.00 | 0.24 | 0.03 | 45 | 1009.3 |
| 20260505151603 | 55 | 94 | 2.6 | 11.3 | 0.00 | 0.24 | 0.03 | 47 | 1009.4 |
| 20260505151103 | 54 | 94 | 3.5 | 11.3 | 0.00 | 0.24 | 0.03 | 45 | 1009.3 |
| 20260505150603 | 54 | 94 | 1.7 | 7.8 | 0.00 | 0.24 | 0.03 | 46 | 1009.2 |
| 20260505140602 | 50 | 94 | 0.0 | 3.5 | 0.00 | 0.24 | 0.03 | 67 | 1008.6 |
| 20260505124601 | 46 | 94 | 0.0 | 0.0 | 0.00 | 0.24 | 0.03 | 84 | 1009.6 |
| 20260505124101 | 45 | 94 | 0.0 | 0.0 | 0.01 | 0.24 | 0.03 | 84 | 1009.8 |
| 20260505123601 | 45 | 94 | 0.0 | 0.0 | 0.03 | 0.24 | 0.03 | 83 | 1009.7 |
| 20260505123101 | 45 | 94 | 0.0 | 0.0 | 0.03 | 0.24 | 0.03 | 83 | 1009.7 |
| 20260505122601 | 45 | 94 | 0.0 | 0.0 | 0.03 | 0.24 | 0.03 | 84 | 1009.9 |
| 20260505122101 | 45 | 94 | 0.0 | 0.0 | 0.03 | 0.24 | 0.03 | 83 | 1009.9 |
| 20260505121601 | 44 | 94 | 0.0 | 0.0 | 0.03 | 0.24 | 0.03 | 82 | 1009.9 |
| 20260505115601 | 45 | 94 | 0.0 | 1.7 | 0.03 | 0.24 | 0.03 | 79 | 1009.3 |
| 20260505115100 | 45 | 94 | 0.0 | 3.5 | 0.03 | 0.24 | 0.03 | 75 | 1009.2 |
| 20260505114601 | 46 | 94 | 0.0 | 7.0 | 0.03 | 0.24 | 0.03 | 74 | 1009.5 |
| 20260505114100 | 46 | 94 | 3.5 | 7.0 | 0.02 | 0.23 | 0.02 | 75 | 1009.3 |
| 20260505113601 | 46 | 94 | 0.0 | 1.7 | 0.00 | 0.21 | 0.00 | 76 | 1009.2 |
| 20260505113100 | 46 | 94 | 0.0 | 1.7 | 0.00 | 0.21 | 0.00 | 75 | 1009.2 |
| 20260505112600 | 46 | 94 | 0.9 | 1.7 | 0.00 | 0.21 | 0.00 | 76 | 1009.5 |
| 20260505111600 | 47 | 94 | 0.0 | 1.7 | 0.00 | 0.21 | 0.00 | 76 | 1009.3 |
| 20260505111100 | 47 | 94 | 0.0 | 1.7 | 0.00 | 0.21 | 0.00 | 73 | 1009.0 |
| 20260505110600 | 47 | 94 | 0.0 | 0.9 | 0.00 | 0.21 | 0.00 | 72 | 1008.2 |
| 20260505102059 | 50 | 94 | 1.7 | 5.2 | 0.00 | 0.21 | 0.00 | 60 | 1007.4 |
| 20260505101100 | 51 | 94 | 2.6 | 6.1 | 0.00 | 0.21 | 0.00 | 57 | 1007.1 |
| 20260505100559 | 51 | 94 | 4.3 | 6.1 | 0.00 | 0.21 | 0.00 | 57 | 1007.4 |
| 20260505100059 | 51 | 94 | 0.9 | 6.1 | 0.00 | 0.21 | 0.00 | 57 | 1007.3 |
| 20260505095559 | 51 | 94 | 0.9 | 7.0 | 0.00 | 0.21 | 0.00 | 57 | 1007.4 |
| 20260505095059 | 51 | 94 | 4.3 | 7.0 | 0.00 | 0.21 | 0.00 | 56 | 1007.5 |
| 20260505094558 | 51 | 94 | 2.6 | 7.0 | 0.00 | 0.21 | 0.00 | 56 | 1007.1 |
| 20260505093558 | 51 | 94 | 0.9 | 7.0 | 0.00 | 0.21 | 0.00 | 56 | 1006.9 |
| 20260505093058 | 51 | 94 | 0.0 | 6.1 | 0.00 | 0.21 | 0.00 | 55 | 1006.9 |
| 20260505092559 | 51 | 94 | 2.6 | 7.8 | 0.00 | 0.21 | 0.00 | 55 | 1006.6 |
| 20260505092059 | 51 | 94 | 2.6 | 7.8 | 0.00 | 0.21 | 0.00 | 56 | 1007.0 |
| 20260505091558 | 51 | 94 | 1.7 | 10.4 | 0.00 | 0.21 | 0.00 | 56 | 1007.8 |
| 20260505090559 | 51 | 94 | 3.5 | 7.0 | 0.00 | 0.21 | 0.00 | 57 | 1007.5 |
| 20260505085058 | 51 | 94 | 3.5 | 5.2 | 0.00 | 0.21 | 0.00 | 57 | 1006.6 |
| 20260505084558 | 51 | 94 | 0.9 | 8.7 | 0.00 | 0.21 | 0.00 | 58 | 1006.2 |
| 20260505084058 | 51 | 94 | 1.7 | 8.7 | 0.00 | 0.21 | 0.00 | 57 | 1005.9 |
| 20260505083558 | 52 | 94 | 4.3 | 7.0 | 0.00 | 0.21 | 0.00 | 57 | 1006.0 |
| 20260505083058 | 52 | 94 | 2.6 | 8.7 | 0.00 | 0.21 | 0.00 | 58 | 1006.2 |
| 20260505082558 | 52 | 94 | 3.5 | 9.6 | 0.00 | 0.21 | 0.00 | 57 | 1005.9 |
| 20260505082058 | 52 | 94 | 7.0 | 9.6 | 0.00 | 0.21 | 0.00 | 56 | 1005.9 |
| 20260505081557 | 52 | 94 | 3.5 | 8.7 | 0.00 | 0.21 | 0.00 | 57 | 1006.2 |
| 20260505081058 | 52 | 94 | 4.3 | 7.8 | 0.00 | 0.21 | 0.00 | 58 | 1006.2 |
| 20260505080557 | 52 | 94 | 4.3 | 7.8 | 0.00 | 0.21 | 0.00 | 58 | 1006.3 |
| 20260505080057 | 52 | 94 | 2.6 | 8.7 | 0.00 | 0.21 | 0.00 | 59 | 1006.6 |
| 20260505075057 | 52 | 94 | 2.6 | 11.3 | 0.00 | 0.21 | 0.00 | 60 | 1006.5 |
| 20260505074558 | 52 | 94 | 2.6 | 11.3 | 0.00 | 0.21 | 0.00 | 59 | 1006.2 |
| 20260505074057 | 52 | 94 | 2.6 | 11.3 | 0.00 | 0.21 | 0.00 | 59 | 1005.7 |
| 20260505073557 | 52 | 94 | 0.9 | 11.3 | 0.00 | 0.21 | 0.00 | 59 | 1005.6 |
| 20260505073057 | 52 | 94 | 2.6 | 6.1 | 0.00 | 0.21 | 0.00 | 59 | 1005.4 |
| 20260505072557 | 52 | 94 | 0.9 | 6.1 | 0.00 | 0.21 | 0.00 | 58 | 1005.5 |
| 20260505072057 | 53 | 94 | 1.7 | 7.0 | 0.00 | 0.21 | 0.00 | 58 | 1005.8 |
| 20260505071057 | 53 | 94 | 0.0 | 7.0 | 0.00 | 0.21 | 0.00 | 58 | 1005.9 |
| 20260505070556 | 53 | 94 | 2.6 | 7.0 | 0.00 | 0.21 | 0.00 | 57 | 1005.9 |
| 20260505070057 | 54 | 94 | 1.7 | 8.7 | 0.00 | 0.21 | 0.00 | 56 | 1005.9 |
| 20260505065056 | 54 | 94 | 2.6 | 9.6 | 0.00 | 0.21 | 0.00 | 55 | 1006.0 |
| 20260505064057 | 54 | 94 | 5.2 | 8.7 | 0.00 | 0.21 | 0.00 | 55 | 1005.6 |
| 20260505063556 | 55 | 94 | 3.5 | 8.7 | 0.00 | 0.21 | 0.00 | 54 | 1005.5 |
| 20260505063056 | 55 | 94 | 7.0 | 7.8 | 0.00 | 0.21 | 0.00 | 54 | 1005.3 |
| 20260505062556 | 55 | 94 | 3.5 | 9.6 | 0.00 | 0.21 | 0.00 | 54 | 1005.2 |
| 20260505061556 | 55 | 94 | 1.7 | 8.7 | 0.00 | 0.21 | 0.00 | 54 | 1004.5 |
| 20260505061056 | 55 | 94 | 1.7 | 8.7 | 0.00 | 0.21 | 0.00 | 54 | 1004.5 |
| 20260505060556 | 55 | 94 | 2.6 | 5.2 | 0.00 | 0.21 | 0.00 | 54 | 1004.4 |
| 20260505055555 | 56 | 94 | 1.7 | 7.8 | 0.00 | 0.21 | 0.00 | 53 | 1003.8 |
| 20260505055055 | 56 | 94 | 2.6 | 6.1 | 0.00 | 0.21 | 0.00 | 53 | 1003.9 |
| 20260505054555 | 56 | 94 | 3.5 | 6.1 | 0.00 | 0.21 | 0.00 | 52 | 1003.8 |
| 20260505054055 | 56 | 94 | 0.9 | 7.0 | 0.00 | 0.21 | 0.00 | 52 | 1003.7 |
| 20260505053555 | 56 | 94 | 0.9 | 7.0 | 0.00 | 0.21 | 0.00 | 51 | 1003.7 |
| 20260505053055 | 56 | 94 | 5.2 | 6.1 | 0.00 | 0.21 | 0.00 | 51 | 1003.7 |
| 20260505052555 | 57 | 94 | 1.7 | 6.1 | 0.00 | 0.21 | 0.00 | 52 | 1003.7 |
| 20260505051555 | 57 | 94 | 3.5 | 7.8 | 0.00 | 0.21 | 0.00 | 50 | 1003.3 |
| 20260505050555 | 58 | 94 | 3.5 | 8.7 | 0.00 | 0.21 | 0.00 | 49 | 1003.1 |
| 20260505041554 | 59 | 94 | 1.7 | 4.3 | 0.00 | 0.21 | 0.21 | 54 | 1003.0 |
| 20260505041054 | 60 | 94 | 1.7 | 4.3 | 0.00 | 0.21 | 0.21 | 53 | 1003.0 |
| 20260505040554 | 60 | 94 | 4.3 | 8.7 | 0.00 | 0.21 | 0.21 | 53 | 1003.0 |
| 20260505040054 | 60 | 94 | 2.6 | 8.7 | 0.00 | 0.21 | 0.21 | 52 | 1003.0 |
| 20260505035554 | 60 | 94 | 0.0 | 7.0 | 0.00 | 0.21 | 0.21 | 52 | 1002.9 |
| 20260505034554 | 61 | 94 | 2.6 | 5.2 | 0.00 | 0.21 | 0.21 | 53 | 1002.9 |
| 20260505034054 | 61 | 94 | 3.5 | 5.2 | 0.00 | 0.21 | 0.21 | 55 | 1002.9 |
| 20260505033553 | 61 | 94 | 3.5 | 7.0 | 0.00 | 0.21 | 0.21 | 53 | 1003.0 |
| 20260505032554 | 61 | 94 | 3.5 | 6.1 | 0.00 | 0.21 | 0.21 | 55 | 1002.6 |
| 20260505032054 | 62 | 94 | 6.1 | 6.1 | 0.00 | 0.21 | 0.21 | 56 | 1002.6 |
| 20260505031053 | 62 | 94 | 0.0 | 5.2 | 0.00 | 0.21 | 0.21 | 57 | 1002.6 |
| 20260505030553 | 62 | 94 | 0.0 | 3.5 | 0.00 | 0.21 | 0.21 | 58 | 1002.6 |
| 20260505030053 | 62 | 94 | 1.7 | 4.3 | 0.00 | 0.21 | 0.21 | 60 | 1002.6 |
| 20260505025553 | 62 | 94 | 0.0 | 4.3 | 0.00 | 0.21 | 0.21 | 60 | 1002.3 |
| 20260505025053 | 62 | 94 | 0.0 | 2.6 | 0.00 | 0.21 | 0.21 | 61 | 1002.2 |
| 20260505024553 | 62 | 94 | 0.9 | 5.2 | 0.00 | 0.21 | 0.21 | 62 | 1002.1 |
| 20260505023553 | 61 | 94 | 0.9 | 7.0 | 0.00 | 0.21 | 0.21 | 70 | 1001.7 |
| 20260505022553 | 61 | 94 | 0.0 | 0.9 | 0.00 | 0.21 | 0.21 | 79 | 1001.7 |
| 20260505021552 | 61 | 94 | 0.0 | 2.6 | 0.00 | 0.21 | 0.21 | 79 | 1001.5 |
| 20260505021052 | 61 | 94 | 0.0 | 1.7 | 0.00 | 0.21 | 0.21 | 80 | 1001.4 |
| 20260505020552 | 62 | 94 | 0.9 | 2.6 | 0.00 | 0.21 | 0.21 | 79 | 1001.4 |
| 20260505020052 | 62 | 94 | 0.0 | 2.6 | 0.00 | 0.21 | 0.21 | 79 | 1001.1 |
| 20260505015553 | 62 | 94 | 0.0 | 0.9 | 0.00 | 0.21 | 0.21 | 79 | 1000.9 |
| 20260505014552 | 63 | 94 | 0.0 | 4.3 | 0.00 | 0.21 | 0.21 | 77 | 1000.7 |
| 20260505013552 | 63 | 94 | 3.5 | 7.0 | 0.00 | 0.21 | 0.21 | 76 | 1000.6 |
| 20260505013052 | 63 | 94 | 1.7 | 9.6 | 0.00 | 0.21 | 0.21 | 76 | 1000.4 |
| 20260505012052 | 64 | 94 | 6.1 | 7.8 | 0.00 | 0.21 | 0.21 | 77 | 1000.4 |
| 20260505011052 | 64 | 94 | 0.0 | 5.2 | 0.00 | 0.21 | 0.21 | 79 | 999.9 |
| 20260505010552 | 64 | 94 | 0.0 | 5.2 | 0.00 | 0.21 | 0.21 | 79 | 999.9 |
| 20260505010052 | 64 | 94 | 0.9 | 5.2 | 0.00 | 0.21 | 0.21 | 79 | 999.8 |
| 20260505005551 | 64 | 94 | 0.9 | 8.7 | 0.01 | 0.21 | 0.21 | 81 | 999.0 |
| 20260505005052 | 63 | 94 | 1.7 | 8.7 | 0.01 | 0.21 | 0.21 | 81 | 998.6 |
| 20260505004552 | 63 | 94 | 1.7 | 7.8 | 0.01 | 0.21 | 0.21 | 83 | 998.6 |
| 20260505004051 | 63 | 94 | 1.7 | 5.2 | 0.01 | 0.21 | 0.21 | 83 | 998.5 |
| 20260505002051 | 63 | 94 | 2.6 | 7.8 | 0.01 | 0.21 | 0.21 | 82 | 997.9 |
| 20260505001551 | 63 | 94 | 3.5 | 8.7 | 0.01 | 0.21 | 0.21 | 83 | 997.7 |
| 20260505001051 | 62 | 94 | 3.5 | 9.6 | 0.01 | 0.21 | 0.21 | 84 | 997.6 |
| 20260505000552 | 62 | 94 | 2.6 | 9.6 | 0.01 | 0.21 | 0.21 | 85 | 997.5 |
| 20260504234051 | 61 | 94 | 5.2 | 8.7 | 0.15 | 0.20 | 0.20 | 88 | 998.1 |
| 20260504233552 | 60 | 94 | 6.1 | 8.7 | 0.15 | 0.20 | 0.20 | 89 | 998.4 |
| 20260504233051 | 60 | 94 | 4.3 | 7.0 | 0.15 | 0.20 | 0.20 | 90 | 998.1 |
| 20260504232551 | 60 | 94 | 0.0 | 1.7 | 0.15 | 0.20 | 0.20 | 90 | 997.9 |
| 20260504232051 | 60 | 94 | 0.0 | 1.7 | 0.16 | 0.20 | 0.20 | 90 | 997.8 |
| 20260504231550 | 60 | 94 | 0.9 | 1.7 | 0.18 | 0.20 | 0.20 | 89 | 997.8 |
| 20260504231050 | 61 | 94 | 0.0 | 0.9 | 0.20 | 0.20 | 0.20 | 89 | 998.2 |
| 20260504230051 | 61 | 94 | 0.0 | 4.3 | 0.20 | 0.20 | 0.20 | 86 | 998.3 |
| 20260504225550 | 62 | 94 | 0.0 | 14.8 | 0.20 | 0.20 | 0.20 | 82 | 998.2 |
| 20260504225051 | 64 | 94 | 2.6 | 19.1 | 0.17 | 0.17 | 0.17 | 79 | 998.9 |
| 20260504224550 | 66 | 94 | 3.5 | 20.9 | 0.06 | 0.06 | 0.06 | 74 | 999.2 |
| 20260504224050 | 67 | 94 | 12.2 | 20.9 | 0.05 | 0.05 | 0.05 | 72 | 998.0 |
| 20260504223050 | 68 | 94 | 0.0 | 9.6 | 0.05 | 0.05 | 0.05 | 74 | 997.3 |
| 20260504222550 | 69 | 94 | 2.6 | 10.4 | 0.05 | 0.05 | 0.05 | 70 | 997.6 |
| 20260504222050 | 73 | 94 | 0.9 | 10.4 | 0.04 | 0.04 | 0.04 | 63 | 997.8 |
| 20260504221550 | 75 | 94 | 6.1 | 9.6 | 0.02 | 0.02 | 0.02 | 59 | 997.8 |
| 20260504221050 | 75 | 94 | 1.7 | 6.1 | 0.00 | 0.00 | 0.00 | 55 | 997.3 |
| 20260504220049 | 75 | 94 | 0.9 | 3.5 | 0.00 | 0.00 | 0.00 | 54 | 997.1 |
| 20260504215549 | 76 | 94 | 0.9 | 3.5 | 0.00 | 0.00 | 0.00 | 54 | 997.4 |
| 20260504215049 | 76 | 94 | 0.0 | 7.0 | 0.00 | 0.00 | 0.00 | 51 | 997.5 |
| 20260504214549 | 78 | 94 | 3.5 | 7.8 | 0.00 | 0.00 | 0.00 | 51 | 997.5 |
| 20260504214049 | 79 | 94 | 2.6 | 9.6 | 0.00 | 0.00 | 0.00 | 51 | 997.7 |
| 20260504213549 | 80 | 94 | 1.7 | 11.3 | 0.00 | 0.00 | 0.00 | 43 | 997.9 |
| 20260504213049 | 80 | 94 | 1.7 | 11.3 | 0.00 | 0.00 | 0.00 | 41 | 997.8 |
| 20260504212049 | 81 | 94 | 0.9 | 9.6 | 0.00 | 0.00 | 0.00 | 39 | 997.8 |
| 20260504211549 | 82 | 94 | 0.9 | 9.6 | 0.00 | 0.00 | 0.00 | 40 | 997.8 |
| 20260504211048 | 82 | 94 | 0.0 | 13.9 | 0.00 | 0.00 | 0.00 | 39 | 997.8 |
| 20260504210049 | 84 | 94 | 1.7 | 10.4 | 0.00 | 0.00 | 0.00 | 37 | 997.7 |
| 20260504204048 | 83 | 94 | 1.7 | 10.4 | 0.00 | 0.00 | 0.00 | 38 | 998.1 |
| 20260504203048 | 81 | 94 | 2.6 | 7.8 | 0.00 | 0.00 | 0.00 | 40 | 998.3 |
| 20260504202548 | 81 | 94 | 0.9 | 7.0 | 0.00 | 0.00 | 0.00 | 38 | 998.4 |
| 20260504201548 | 82 | 94 | 1.7 | 11.3 | 0.00 | 0.00 | 0.00 | 38 | 998.5 |
| 20260504201048 | 82 | 94 | 4.3 | 7.0 | 0.00 | 0.00 | 0.00 | 38 | 998.6 |
| 20260504200548 | 82 | 94 | 2.6 | 7.0 | 0.00 | 0.00 | 0.00 | 38 | 998.6 |
| 20260504200118 | 82 | 94 | 5.2 | 11.3 | 0.00 | 0.00 | 0.00 | 39 | 998.7 |
| 20260504195048 | 82 | 94 | 5.2 | 9.6 | 0.00 | 0.00 | 0.00 | 37 | 998.7 |
| 20260504194618 | 81 | 94 | 3.5 | 10.4 | 0.00 | 0.00 | 0.00 | 40 | 998.7 |